Back to catalog

COSMOS 1040

AliveMilitaryLEO
NORAD 11049·PAYLOAD·🇷🇺 Russia

Launched Oct 4, 1978 from Plesetsk Cosmodrome

Loading…

Next Passes (next 24 hours)

TLE

FreshSource: Space-Track

Epoch: Sep 14, 2026, 09:12 UTC

1 11049U 78091G   26257.38349932 -.00000029  00000-0 -95497-4 0  9994
2 11049  74.0317 252.9556 0031195 299.8794 128.2546 12.40882261171898

Track COSMOS 1040 in real time with AllMySat

Download on the App Store